TimeMDT,TemperatureF,Dew PointF,Humidity,Sea Level PressureIn,VisibilityMPH,Wind Direction,Wind SpeedMPH,Gust SpeedMPH,PrecipitationIn,Events,Conditions,WindDirDegrees,DateUTC
12:53 AM,68.0,39.9,36,29.96,10.0,Variable,4.6,-,N/A,,Clear,0,2013-08-31 06:53:00
1:53 AM,61.0,39.9,46,29.99,10.0,Calm,Calm,-,N/A,,Clear,0,2013-08-31 07:53:00
2:53 AM,62.1,39.9,44,30.00,10.0,NW,4.6,-,N/A,,Clear,310,2013-08-31 08:53:00
3:53 AM,57.9,39.9,51,30.02,10.0,NW,8.1,-,N/A,,Clear,310,2013-08-31 09:53:00
4:53 AM,55.9,39.0,53,30.03,10.0,West,4.6,-,N/A,,Clear,270,2013-08-31 10:53:00
5:53 AM,53.1,39.0,59,30.04,10.0,Calm,Calm,-,N/A,,Clear,0,2013-08-31 11:53:00
6:53 AM,53.1,41.0,64,30.06,10.0,WNW,8.1,-,N/A,,Clear,290,2013-08-31 12:53:00
7:53 AM,60.1,41.0,49,30.09,10.0,WSW,4.6,-,N/A,,Clear,240,2013-08-31 13:53:00
8:53 AM,64.9,42.1,43,30.08,10.0,West,4.6,-,N/A,,Clear,270,2013-08-31 14:53:00
9:53 AM,71.1,39.0,31,30.06,10.0,NW,5.8,-,N/A,,Clear,310,2013-08-31 15:53:00
10:53 AM,75.0,39.9,28,30.03,10.0,West,6.9,-,N/A,,Clear,280,2013-08-31 16:53:00
11:53 AM,78.1,39.9,25,30.01,10.0,NNW,8.1,-,N/A,,Clear,330,2013-08-31 17:53:00
12:53 PM,82.0,39.0,22,30.00,10.0,NNW,10.4,17.3,N/A,,Clear,330,2013-08-31 18:53:00
1:53 PM,82.9,36.0,19,30.00,10.0,WNW,4.6,-,N/A,,Clear,290,2013-08-31 19:53:00
2:53 PM,84.9,33.1,16,29.98,10.0,NNE,5.8,-,N/A,,Clear,20,2013-08-31 20:53:00
3:53 PM,86.0,23.0,10,29.97,10.0,Variable,4.6,-,N/A,,Clear,0,2013-08-31 21:53:00
4:53 PM,87.1,23.0,10,29.96,10.0,NW,12.7,-,N/A,,Clear,320,2013-08-31 22:53:00
5:53 PM,86.0,26.1,11,29.96,10.0,North,6.9,21.9,N/A,,Clear,350,2013-08-31 23:53:00
6:53 PM,84.0,27.0,13,29.97,10.0,NNE,4.6,-,N/A,,Clear,30,2013-09-01 00:53:00
7:53 PM,77.0,28.0,17,29.98,10.0,ESE,3.5,-,N/A,,Clear,110,2013-09-01 01:53:00
8:53 PM,72.0,34.0,25,30.00,10.0,East,12.7,-,N/A,,Clear,100,2013-09-01 02:53:00
9:53 PM,68.0,36.0,31,30.01,10.0,ESE,11.5,-,N/A,,Clear,120,2013-09-01 03:53:00
10:53 PM,66.9,36.0,32,30.01,10.0,ESE,16.1,-,N/A,,Clear,110,2013-09-01 04:53:00
11:53 PM,64.9,36.0,34,30.01,10.0,East,17.3,-,N/A,,Clear,100,2013-09-01 05:53:00